contact:dominique.lefevre@mio.osupytheas.fr, maurice.libes@osupytheas.fr, didier.mallarino@osupytheas.fr
Project:EMSO http://www.emso-fr.org/EMSO-France
Depth: 2436.0 m
Title:EMSO Ligure Ouest : Data MII capteur AQUADOPP
Date,Latitude,Longitude,X_East,Y_North,Z_Up,Amplitude_X,Amplitude_Y,Amplitude_Z,Batterie,SoundSpeed,Heading,Pitch,Roll,Pressure,TIS,Speed,Direction
, degrees North, degrees East, m.s-1, m.s-1,m.s-1, 1, 1, 1, Volt, m.s-1, degree, degree, degree, dbar, degree_C, m.s-1, degree
2022-12-28T00:04:03,42.805,6.029,0.005,-0.026,0.009,100.0,101.0,102.0,13.3,1505.2,332.6,-0.8,1.8,2471.209,13.29,0.026,169.1
2022-12-28T00:07:03,42.805,6.029,0.001,-0.045,0.006,101.0,102.0,103.0,13.4,1505.2,321.3,-0.8,1.8,2471.214,13.29,0.045,178.7
2022-12-28T00:10:03,42.805,6.029,-0.014,-0.019,0.02,103.0,100.0,103.0,13.4,1505.2,332.6,-0.7,1.8,2471.19,13.29,0.023,216.4
2022-12-28T00:13:03,42.805,6.029,-0.021,-0.021,-0.021,101.0,102.0,102.0,13.3,1505.2,327.3,-0.7,1.8,2471.206,13.29,0.029,225.0
2022-12-28T00:16:03,42.805,6.029,-0.028,-0.023,0.006,102.0,101.0,102.0,13.4,1505.2,329.9,-0.7,1.8,2471.214,13.29,0.036,230.6
2022-12-28T00:19:03,42.805,6.029,-0.023,-0.024,-0.014,103.0,101.0,104.0,13.3,1505.2,336.8,-0.8,1.8,2471.188,13.29,0.033,223.8
2022-12-28T00:22:03,42.805,6.029,-0.029,-0.042,-0.021,102.0,102.0,102.0,13.3,1505.2,328.2,-0.8,1.8,2471.216,13.29,0.051,214.6
2022-12-28T00:25:03,42.805,6.029,-0.002,-0.025,-0.003,100.0,102.0,103.0,13.3,1505.2,321.8,-0.8,1.8,2471.212,13.29,0.025,184.6
2022-12-28T00:28:03,42.805,6.029,-0.005,-0.034,0.003,98.0,102.0,103.0,13.4,1505.2,337.5,-0.8,1.8,2471.198,13.29,0.034,188.4
2022-12-28T00:31:03,42.805,6.029,-0.014,-0.025,-0.006,103.0,100.0,103.0,13.4,1505.2,333.7,-0.7,1.9,2471.204,13.29,0.028,209.3
2022-12-28T00:34:03,42.805,6.029,0.0,-0.044,-0.017,100.0,102.0,103.0,13.4,1505.2,328.2,-0.8,1.8,2471.188,13.29,0.044,180.0
2022-12-28T00:37:03,42.805,6.029,-0.006,-0.041,-0.009,102.0,101.0,102.0,13.3,1505.2,333.4,-0.8,1.8,2471.14,13.29,0.041,188.3
2022-12-28T00:40:03,42.805,6.029,-0.002,-0.018,0.035,103.0,101.0,102.0,13.4,1505.2,326.7,-0.7,1.9,2471.209,13.29,0.018,186.3
2022-12-28T00:43:03,42.805,6.029,-0.012,-0.014,0.033,101.0,102.0,102.0,13.4,1505.2,331.1,-0.7,1.8,2471.144,13.29,0.018,220.6
2022-12-28T00:46:03,42.805,6.029,0.001,-0.038,0.004,101.0,102.0,102.0,13.4,1505.2,322.8,-0.7,1.8,2471.166,13.29,0.038,178.5
2022-12-28T00:49:03,42.805,6.029,-0.018,-0.029,0.001,102.0,101.0,101.0,13.4,1505.2,329.1,-0.8,1.8,2471.158,13.29,0.034,211.8
2022-12-28T00:52:03,42.805,6.029,-0.002,-0.018,0.015,101.0,102.0,102.0,13.4,1505.2,323.6,-0.8,1.8,2471.206,13.29,0.018,186.3
2022-12-28T00:55:03,42.805,6.029,0.016,-0.033,0.019,100.0,101.0,102.0,13.4,1505.2,317.0,-0.8,1.8,2471.147,13.29,0.036,154.1
2022-12-28T00:58:03,42.805,6.029,-0.003,-0.04,0.007,102.0,101.0,102.0,13.4,1505.2,326.5,-0.7,1.8,2471.207,13.29,0.04,184.3
2022-12-28T01:04:03,42.805,6.029,-0.002,-0.001,0.026,103.0,104.0,103.0,13.4,1505.2,328.4,-0.8,1.8,2471.236,13.28,0.002,243.4
2022-12-28T01:07:03,42.805,6.029,-0.018,-0.033,0.004,101.0,101.0,102.0,13.4,1505.2,336.2,-0.8,1.8,2471.22,13.28,0.037,208.6
2022-12-28T01:10:03,42.805,6.029,0.004,-0.032,-0.015,99.0,102.0,103.0,13.4,1505.2,323.7,-0.8,1.8,2471.232,13.29,0.032,172.9
2022-12-28T01:13:03,42.805,6.029,-0.028,-0.036,-0.025,102.0,102.0,103.0,13.3,1505.2,334.9,-0.8,1.8,2471.223,13.29,0.045,217.9
2022-12-28T01:16:03,42.805,6.029,-0.002,-0.026,0.007,101.0,102.0,103.0,13.4,1505.2,316.4,-0.8,1.8,2471.225,13.29,0.026,184.4
2022-12-28T01:19:03,42.805,6.029,0.007,-0.041,0.022,101.0,101.0,102.0,13.4,1505.2,323.2,-0.7,1.8,2471.197,13.29,0.041,170.3
2022-12-28T01:22:03,42.805,6.029,-0.006,-0.024,0.021,102.0,101.0,102.0,13.4,1505.2,334.5,-0.8,1.8,2471.13,13.29,0.024,194.0
2022-12-28T01:25:03,42.805,6.029,-0.005,-0.031,0.017,101.0,101.0,103.0,13.4,1505.2,330.3,-0.7,1.8,2471.165,13.29,0.031,189.2
2022-12-28T01:28:03,42.805,6.029,-0.006,-0.035,0.02,103.0,101.0,101.0,13.4,1505.2,319.4,-0.7,1.8,2471.117,13.29,0.035,189.7
2022-12-28T01:31:03,42.805,6.029,-0.016,-0.026,0.018,102.0,101.0,103.0,13.4,1505.2,332.6,-0.8,1.8,2471.155,13.29,0.03,211.6
2022-12-28T01:34:03,42.805,6.029,-0.009,-0.028,0.019,101.0,101.0,102.0,13.4,1505.2,325.9,-0.8,1.8,2471.128,13.29,0.029,197.8
2022-12-28T01:37:03,42.805,6.029,0.013,-0.027,0.013,101.0,101.0,102.0,13.3,1505.2,324.0,-0.8,1.8,2471.156,13.29,0.029,154.3
2022-12-28T01:40:03,42.805,6.029,-0.031,-0.043,-0.01,101.0,102.0,102.0,13.4,1505.2,335.7,-0.8,1.8,2471.148,13.29,0.053,215.8
2022-12-28T01:43:03,42.805,6.029,-0.007,-0.015,0.039,101.0,101.0,101.0,13.4,1505.2,317.4,-0.7,1.8,2471.193,13.29,0.016,205.0
2022-12-28T01:46:03,42.805,6.029,-0.015,-0.018,0.011,101.0,101.0,103.0,13.4,1505.2,326.3,-0.8,1.8,2471.211,13.29,0.023,219.8
2022-12-28T01:49:03,42.805,6.029,-0.002,-0.001,0.037,100.0,101.0,101.0,13.4,1505.2,318.8,-0.8,1.8,2471.152,13.29,0.002,243.4
2022-12-28T01:52:03,42.805,6.029,-0.01,-0.037,-0.012,100.0,101.0,102.0,13.4,1505.2,324.4,-0.7,1.8,2471.108,13.29,0.038,195.1
2022-12-28T01:55:03,42.805,6.029,0.008,-0.035,0.003,102.0,103.0,102.0,13.3,1505.2,336.4,-0.7,1.8,2471.15,13.29,0.035,167.1
2022-12-28T01:58:03,42.805,6.029,-0.016,-0.027,-0.008,101.0,101.0,102.0,13.3,1505.2,326.1,-0.7,1.8,2471.19,13.29,0.031,210.7
2022-12-28T02:04:03,42.805,6.029,-0.023,-0.017,-0.014,101.0,102.0,102.0,13.4,1505.2,335.0,-0.8,1.8,2471.2,13.28,0.028,233.5
2022-12-28T02:07:03,42.805,6.029,0.0,-0.045,-0.001,102.0,102.0,102.0,13.4,1505.2,316.6,-0.8,1.8,2471.209,13.28,0.045,180.0
2022-12-28T02:10:03,42.805,6.029,-0.002,-0.035,0.006,101.0,101.0,101.0,13.3,1505.2,325.8,-0.8,1.8,2471.193,13.29,0.035,183.3
2022-12-28T02:13:03,42.805,6.029,-0.025,-0.006,0.009,103.0,100.0,102.0,13.4,1505.2,337.2,-0.7,1.8,2471.183,13.29,0.025,256.5
2022-12-28T02:16:03,42.805,6.029,-0.009,-0.032,0.0,102.0,103.0,101.0,13.4,1505.2,324.7,-0.8,1.8,2471.184,13.29,0.033,195.7
2022-12-28T02:19:03,42.805,6.029,-0.022,-0.012,-0.009,102.0,101.0,102.0,13.4,1505.2,330.3,-0.8,1.8,2471.188,13.29,0.025,241.4
2022-12-28T02:22:03,42.805,6.029,-0.012,-0.039,-0.014,102.0,102.0,102.0,13.4,1505.2,333.4,-0.8,1.8,2471.163,13.29,0.04,197.1
2022-12-28T02:25:03,42.805,6.029,-0.024,-0.01,-0.004,103.0,101.0,102.0,13.4,1505.2,336.1,-0.7,1.8,2471.161,13.29,0.026,247.4
2022-12-28T02:28:03,42.805,6.029,0.002,-0.048,-0.013,102.0,102.0,102.0,13.3,1505.2,319.8,-0.7,1.8,2471.156,13.29,0.048,177.6
2022-12-28T02:31:03,42.805,6.029,-0.004,-0.032,0.018,99.0,103.0,103.0,13.3,1505.2,321.8,-0.8,1.8,2471.132,13.29,0.032,187.1
2022-12-28T02:34:03,42.805,6.029,-0.005,-0.028,0.012,100.0,102.0,103.0,13.4,1505.2,334.6,-0.8,1.8,2471.187,13.29,0.028,190.1
2022-12-28T02:37:03,42.805,6.029,0.0,-0.033,0.008,102.0,101.0,102.0,13.4,1505.2,332.7,-0.7,1.8,2471.186,13.29,0.033,180.0
2022-12-28T02:40:03,42.805,6.029,-0.034,-0.009,-0.001,103.0,102.0,101.0,13.4,1505.2,321.5,-0.8,1.8,2471.144,13.29,0.035,255.2
2022-12-28T02:43:03,42.805,6.029,0.017,-0.029,0.016,101.0,102.0,102.0,13.4,1505.2,323.8,-0.8,1.8,2471.133,13.29,0.033,149.6
2022-12-28T02:46:03,42.805,6.029,0.007,-0.036,0.015,101.0,102.0,102.0,13.4,1505.2,326.5,-0.8,1.8,2471.143,13.29,0.036,169.0
2022-12-28T02:49:03,42.805,6.029,-0.007,-0.027,0.01,101.0,101.0,102.0,13.4,1505.2,321.3,-0.8,1.8,2471.101,13.29,0.027,194.5
2022-12-28T02:52:03,42.805,6.029,-0.02,0.003,0.041,101.0,101.0,102.0,13.4,1505.2,338.0,-0.8,1.8,2471.122,13.29,0.02,278.5
2022-12-28T02:55:03,42.805,6.029,-0.043,-0.007,0.0,101.0,100.0,102.0,13.3,1505.2,333.8,-0.8,1.8,2471.102,13.29,0.043,260.8
2022-12-28T02:58:03,42.805,6.029,0.007,-0.027,0.015,102.0,101.0,102.0,13.4,1505.2,317.0,-0.7,1.8,2471.141,13.29,0.027,165.5
2022-12-28T03:04:03,42.805,6.029,-0.015,-0.016,0.035,101.0,102.0,102.0,13.4,1505.2,326.1,-0.7,1.8,2471.164,13.28,0.021,223.1
2022-12-28T03:07:03,42.805,6.029,-0.013,-0.036,-0.006,101.0,101.0,102.0,13.3,1505.2,318.9,-0.7,1.8,2471.153,13.28,0.038,199.9
2022-12-28T03:10:03,42.805,6.029,0.003,-0.04,0.008,103.0,101.0,102.0,13.4,1505.2,321.0,-0.8,1.8,2471.168,13.28,0.04,175.7
2022-12-28T03:13:03,42.805,6.029,-0.015,-0.031,-0.007,101.0,102.0,101.0,13.3,1505.2,323.4,-0.8,1.8,2471.144,13.29,0.034,205.8
2022-12-28T03:16:03,42.805,6.029,-0.022,-0.027,-0.014,101.0,101.0,102.0,13.4,1505.2,329.9,-0.8,1.8,2471.152,13.29,0.034,219.2
2022-12-28T03:19:03,42.805,6.029,0.0,-0.023,0.019,101.0,102.0,102.0,13.3,1505.2,331.1,-0.7,1.8,2471.1,13.29,0.023,180.0
2022-12-28T03:22:03,42.805,6.029,-0.013,-0.043,-0.012,101.0,102.0,103.0,13.3,1505.2,322.3,-0.7,1.8,2471.105,13.29,0.044,196.8
2022-12-28T03:25:03,42.805,6.029,-0.016,-0.03,0.006,102.0,101.0,102.0,13.4,1505.2,324.4,-0.8,1.8,2471.126,13.29,0.034,208.1
2022-12-28T03:28:03,42.805,6.029,-0.038,-0.032,-0.009,102.0,102.0,101.0,13.4,1505.2,322.4,-0.8,1.8,2471.134,13.29,0.049,229.9
2022-12-28T03:31:03,42.805,6.029,-0.003,-0.021,0.04,101.0,102.0,102.0,13.4,1505.2,329.4,-0.8,1.8,2471.108,13.29,0.021,188.1
2022-12-28T03:34:03,42.805,6.029,-0.023,-0.02,0.004,99.0,104.0,103.0,13.4,1505.2,328.8,-0.8,1.8,2471.148,13.29,0.03,229.0
2022-12-28T03:37:03,42.805,6.029,-0.012,-0.021,0.015,102.0,102.0,102.0,13.3,1505.2,327.8,-0.7,1.8,2471.107,13.29,0.024,209.7
2022-12-28T03:40:03,42.805,6.029,-0.034,-0.032,-0.004,102.0,102.0,101.0,13.4,1505.2,335.4,-0.8,1.8,2471.142,13.29,0.046,226.7
2022-12-28T03:43:03,42.805,6.029,0.001,-0.018,0.023,101.0,103.0,102.0,13.4,1505.2,319.4,-0.7,1.8,2471.113,13.29,0.018,176.8
2022-12-28T03:46:03,42.805,6.029,-0.016,-0.01,0.031,101.0,102.0,102.0,13.3,1505.2,328.1,-0.8,1.8,2471.078,13.29,0.018,238.0
2022-12-28T03:49:03,42.805,6.029,-0.022,-0.038,0.007,101.0,102.0,102.0,13.4,1505.2,336.1,-0.8,1.8,2471.129,13.29,0.043,210.1
2022-12-28T03:52:03,42.805,6.029,0.009,-0.052,0.002,101.0,101.0,102.0,13.3,1505.2,317.0,-0.7,1.8,2471.138,13.29,0.052,170.2
2022-12-28T03:55:03,42.805,6.029,-0.017,-0.04,0.001,102.0,99.0,102.0,13.4,1505.2,321.2,-0.8,1.8,2471.053,13.29,0.043,203.0
2022-12-28T03:58:03,42.805,6.029,-0.042,-0.024,0.001,101.0,101.0,102.0,13.4,1505.2,326.9,-0.7,1.8,2471.11,13.29,0.048,240.3
2022-12-28T04:04:03,42.805,6.029,-0.023,-0.035,0.001,101.0,101.0,102.0,13.4,1505.2,329.6,-0.7,1.8,2471.094,13.28,0.041,213.3
2022-12-28T04:07:03,42.805,6.029,-0.003,-0.029,0.014,101.0,100.0,102.0,13.4,1505.2,318.4,-0.8,1.8,2471.164,13.28,0.029,185.9
2022-12-28T04:10:03,42.805,6.029,-0.016,-0.029,-0.001,102.0,100.0,101.0,13.4,1505.2,329.2,-0.8,1.8,2471.129,13.29,0.033,208.9
2022-12-28T04:13:03,42.805,6.029,-0.038,-0.017,0.02,103.0,100.0,101.0,13.4,1505.2,324.4,-0.7,1.8,2471.144,13.29,0.041,245.9
2022-12-28T04:16:03,42.805,6.029,-0.014,-0.022,0.008,101.0,100.0,103.0,13.3,1505.2,323.7,-0.8,1.8,2471.086,13.29,0.026,212.5
2022-12-28T04:19:03,42.805,6.029,-0.026,-0.016,0.024,102.0,100.0,102.0,13.4,1505.2,330.8,-0.7,1.8,2471.085,13.29,0.03,238.4
2022-12-28T04:22:03,42.805,6.029,-0.017,-0.027,0.009,102.0,101.0,102.0,13.3,1505.2,328.4,-0.8,1.8,2471.139,13.29,0.031,212.2
2022-12-28T04:25:03,42.805,6.029,-0.025,-0.016,0.012,102.0,101.0,102.0,13.4,1505.2,324.1,-0.8,1.8,2471.122,13.29,0.029,237.4
2022-12-28T04:28:03,42.805,6.029,-0.022,-0.009,0.036,101.0,102.0,101.0,13.4,1505.2,335.7,-0.8,1.8,2471.137,13.29,0.023,247.8
2022-12-28T04:31:03,42.805,6.029,-0.005,-0.038,0.011,100.0,103.0,102.0,13.4,1505.2,330.0,-0.8,1.8,2471.122,13.29,0.038,187.5
2022-12-28T04:34:03,42.805,6.029,-0.007,-0.026,-0.002,102.0,102.0,102.0,13.4,1505.2,316.4,-0.7,1.8,2471.115,13.29,0.026,195.1
2022-12-28T04:37:03,42.805,6.029,-0.039,-0.035,-0.017,101.0,101.0,102.0,13.4,1505.2,320.1,-0.8,1.8,2471.119,13.29,0.052,228.1
2022-12-28T04:40:03,42.805,6.029,-0.027,-0.016,0.023,101.0,102.0,101.0,13.4,1505.2,323.7,-0.7,1.8,2471.127,13.29,0.031,239.3
2022-12-28T04:43:03,42.805,6.029,0.003,-0.035,0.002,101.0,101.0,103.0,13.4,1505.2,329.2,-0.8,1.8,2471.069,13.29,0.035,175.1
2022-12-28T04:46:03,42.805,6.029,-0.033,-0.038,-0.01,101.0,102.0,101.0,13.4,1505.2,327.7,-0.8,1.8,2471.075,13.29,0.05,221.0
2022-12-28T04:49:03,42.805,6.029,-0.03,-0.023,-0.017,102.0,103.0,101.0,13.3,1505.2,321.8,-0.7,1.8,2471.112,13.29,0.037,232.5
2022-12-28T04:52:03,42.805,6.029,-0.005,-0.021,0.003,101.0,102.0,102.0,13.4,1505.2,325.6,-0.8,1.8,2471.09,13.29,0.021,193.4
2022-12-28T04:55:03,42.805,6.029,-0.007,-0.04,-0.001,102.0,101.0,102.0,13.4,1505.2,324.6,-0.8,1.8,2471.065,13.29,0.04,189.9
2022-12-28T04:58:03,42.805,6.029,-0.021,-0.022,0.009,102.0,101.0,103.0,13.4,1505.2,321.2,-0.8,1.8,2471.064,13.29,0.03,223.7
2022-12-28T05:04:03,42.805,6.029,-0.017,-0.024,0.001,101.0,105.0,102.0,13.4,1505.2,330.2,-0.8,1.8,2471.13,13.29,0.029,215.3
2022-12-28T05:07:03,42.805,6.029,-0.032,-0.016,0.021,100.0,103.0,102.0,13.3,1505.2,334.4,-0.8,1.8,2471.142,13.29,0.035,243.4
2022-12-28T05:10:03,42.805,6.029,-0.023,-0.013,0.035,102.0,101.0,101.0,13.4,1505.2,325.1,-0.7,1.8,2471.124,13.29,0.026,240.5
2022-12-28T05:13:03,42.805,6.029,-0.01,-0.031,-0.001,101.0,100.0,102.0,13.4,1505.2,324.2,-0.7,1.8,2471.14,13.29,0.032,197.9
2022-12-28T05:16:03,42.805,6.029,-0.029,-0.017,-0.002,100.0,100.0,104.0,13.3,1505.2,328.1,-0.8,1.8,2471.117,13.29,0.033,239.6
2022-12-28T05:19:03,42.805,6.029,-0.001,-0.049,-0.019,103.0,100.0,102.0,13.3,1505.2,329.3,-0.8,1.8,2471.105,13.29,0.049,181.2
2022-12-28T05:22:03,42.805,6.029,-0.029,-0.021,0.003,102.0,100.0,103.0,13.4,1505.2,329.0,-0.8,1.8,2471.098,13.29,0.035,234.1
2022-12-28T05:25:03,42.805,6.029,-0.013,-0.016,0.002,101.0,100.0,102.0,13.4,1505.2,328.7,-0.7,1.8,2471.099,13.29,0.02,219.1
2022-12-28T05:28:03,42.805,6.029,-0.023,-0.018,0.001,101.0,103.0,103.0,13.4,1505.2,329.4,-0.8,1.8,2471.091,13.29,0.029,232.0
2022-12-28T05:31:03,42.805,6.029,-0.017,-0.014,0.02,101.0,102.0,104.0,13.4,1505.2,325.4,-0.8,1.8,2471.108,13.29,0.022,230.5
2022-12-28T05:34:03,42.805,6.029,-0.016,-0.033,-0.012,102.0,101.0,102.0,13.4,1505.2,324.3,-0.7,1.8,2471.081,13.29,0.036,205.9
2022-12-28T05:37:03,42.805,6.029,-0.008,-0.014,0.027,102.0,101.0,102.0,13.3,1505.2,320.2,-0.8,1.8,2471.102,13.29,0.016,209.7
2022-12-28T05:40:03,42.805,6.029,-0.038,-0.021,-0.001,102.0,103.0,102.0,13.3,1505.2,329.1,-0.7,1.8,2471.081,13.29,0.043,241.1
2022-12-28T05:43:03,42.805,6.029,-0.01,-0.027,0.008,100.0,102.0,102.0,13.4,1505.2,324.7,-0.8,1.8,2471.075,13.29,0.028,200.3
2022-12-28T05:46:03,42.805,6.029,-0.03,-0.021,0.016,102.0,100.0,103.0,13.4,1505.2,326.7,-0.7,1.8,2471.09,13.29,0.036,235.0
2022-12-28T05:49:03,42.805,6.029,-0.037,-0.016,0.01,101.0,101.0,102.0,13.4,1505.2,325.6,-0.8,1.8,2471.086,13.29,0.04,246.6
2022-12-28T05:52:03,42.805,6.029,-0.03,-0.021,-0.018,102.0,100.0,102.0,13.4,1505.2,326.7,-0.8,1.8,2471.114,13.29,0.036,235.0
2022-12-28T05:55:03,42.805,6.029,-0.016,-0.003,0.034,101.0,101.0,102.0,13.4,1505.2,316.0,-0.7,1.8,2471.107,13.29,0.016,259.4
2022-12-28T05:58:03,42.805,6.029,-0.035,-0.025,-0.022,102.0,101.0,103.0,13.3,1505.2,324.2,-0.7,1.9,2471.083,13.29,0.043,234.5
2022-12-28T06:04:03,42.805,6.029,-0.055,-0.018,-0.021,102.0,101.0,103.0,13.3,1505.2,326.5,-0.8,1.8,2471.163,13.29,0.057,251.9
2022-12-28T06:07:03,42.805,6.029,-0.027,-0.017,0.012,102.0,101.0,102.0,13.3,1505.2,323.2,-0.7,1.8,2471.161,13.29,0.031,237.8
2022-12-28T06:10:03,42.805,6.029,-0.034,-0.012,0.01,101.0,102.0,101.0,13.3,1505.2,334.2,-0.8,1.8,2471.15,13.29,0.036,250.6
2022-12-28T06:13:03,42.805,6.029,-0.023,-0.028,0.003,101.0,101.0,101.0,13.4,1505.2,323.4,-0.8,1.8,2471.156,13.29,0.036,219.4
2022-12-28T06:16:03,42.805,6.029,-0.026,-0.018,0.01,101.0,102.0,102.0,13.4,1505.2,321.7,-0.7,1.8,2471.165,13.29,0.031,235.3
2022-12-28T06:19:03,42.805,6.029,-0.026,-0.023,0.012,100.0,101.0,103.0,13.4,1505.2,334.1,-0.8,1.8,2471.164,13.29,0.034,228.5
2022-12-28T06:22:03,42.805,6.029,-0.044,-0.03,-0.015,100.0,102.0,102.0,13.3,1505.2,324.6,-0.7,1.8,2471.138,13.29,0.053,235.7
2022-12-28T06:25:03,42.805,6.029,0.0,-0.019,0.03,101.0,100.0,103.0,13.4,1505.2,336.9,-0.8,1.8,2471.129,13.29,0.019,180.0
2022-12-28T06:28:03,42.805,6.029,-0.043,-0.022,-0.001,101.0,100.0,102.0,13.4,1505.2,328.4,-0.8,1.8,2471.122,13.29,0.048,242.9
2022-12-28T06:31:03,42.805,6.029,-0.015,-0.004,0.022,101.0,101.0,103.0,13.4,1505.2,333.7,-0.8,1.8,2471.153,13.29,0.015,255.1
2022-12-28T06:34:03,42.805,6.029,0.012,-0.027,0.031,101.0,102.0,102.0,13.4,1505.2,319.2,-0.7,1.8,2471.144,13.29,0.029,156.0
2022-12-28T06:37:03,42.805,6.029,-0.015,-0.02,0.009,101.0,101.0,102.0,13.4,1505.2,318.0,-0.8,1.8,2471.141,13.29,0.025,216.9
2022-12-28T06:40:03,42.805,6.029,-0.045,-0.009,-0.001,102.0,100.0,102.0,13.3,1505.2,321.9,-0.8,1.8,2471.156,13.29,0.045,258.7
2022-12-28T06:43:03,42.805,6.029,-0.026,-0.014,0.014,101.0,102.0,102.0,13.3,1505.2,336.6,-0.8,1.8,2471.123,13.29,0.029,241.7
2022-12-28T06:46:03,42.805,6.029,-0.048,-0.032,-0.022,101.0,100.0,102.0,13.4,1505.2,323.1,-0.8,1.8,2471.161,13.29,0.057,236.3
2022-12-28T06:49:03,42.805,6.029,-0.03,-0.016,0.008,100.0,101.0,102.0,13.4,1505.2,331.1,-0.8,1.8,2471.17,13.29,0.034,241.9
2022-12-28T06:52:03,42.805,6.029,-0.021,-0.021,0.014,102.0,100.0,102.0,13.4,1505.2,326.3,-0.7,1.8,2471.13,13.29,0.029,225.0
2022-12-28T06:55:03,42.805,6.029,-0.038,-0.037,-0.037,102.0,101.0,101.0,13.4,1505.2,331.4,-0.7,1.8,2471.124,13.29,0.053,225.8
2022-12-28T06:58:03,42.805,6.029,-0.021,-0.008,0.016,101.0,100.0,102.0,13.4,1505.2,321.9,-0.7,1.8,2471.135,13.29,0.022,249.1
2022-12-28T07:04:03,42.805,6.029,-0.025,-0.023,-0.005,102.0,101.0,102.0,13.4,1505.2,316.0,-0.8,1.8,2471.229,13.29,0.033,227.4
2022-12-28T07:07:03,42.805,6.029,-0.006,-0.022,0.041,102.0,101.0,101.0,13.4,1505.2,323.4,-0.8,1.8,2471.19,13.29,0.022,195.3
2022-12-28T07:10:03,42.805,6.029,-0.025,-0.03,-0.001,101.0,101.0,102.0,13.4,1505.2,319.8,-0.8,1.8,2471.187,13.29,0.039,219.8
2022-12-28T07:13:03,42.805,6.029,-0.016,-0.016,0.044,101.0,101.0,102.0,13.4,1505.2,320.9,-0.7,1.9,2471.172,13.29,0.022,225.0
2022-12-28T07:16:03,42.805,6.029,-0.019,-0.02,0.003,101.0,101.0,103.0,13.4,1505.2,337.3,-0.8,1.8,2471.168,13.29,0.027,223.5
2022-12-28T07:19:03,42.805,6.029,-0.026,-0.011,0.025,102.0,101.0,101.0,13.3,1505.2,317.0,-0.8,1.8,2471.19,13.29,0.028,247.1
2022-12-28T07:22:03,42.805,6.029,-0.015,-0.032,-0.011,101.0,100.0,104.0,13.4,1505.2,334.6,-0.8,1.8,2471.129,13.29,0.035,205.1
2022-12-28T07:25:03,42.805,6.029,-0.021,-0.045,-0.037,99.0,103.0,103.0,13.4,1505.2,323.2,-0.7,1.8,2471.227,13.29,0.049,205.0
2022-12-28T07:28:03,42.805,6.029,-0.01,-0.038,0.008,101.0,101.0,102.0,13.4,1505.2,327.5,-0.8,1.9,2471.191,13.29,0.039,194.7
2022-12-28T07:31:03,42.805,6.029,-0.018,-0.029,-0.016,101.0,101.0,102.0,13.3,1505.2,330.9,-0.8,1.8,2471.162,13.29,0.034,211.8
2022-12-28T07:34:03,42.805,6.029,-0.025,-0.022,-0.004,100.0,101.0,102.0,13.4,1505.2,327.2,-0.8,1.8,2471.2,13.29,0.033,228.7
2022-12-28T07:37:03,42.805,6.029,-0.022,-0.023,0.008,101.0,100.0,102.0,13.4,1505.2,331.5,-0.8,1.8,2471.171,13.29,0.031,223.7
2022-12-28T07:40:03,42.805,6.029,-0.035,-0.011,0.045,101.0,100.0,102.0,13.3,1505.2,318.9,-0.7,1.8,2471.219,13.29,0.036,252.6
2022-12-28T07:43:03,42.805,6.029,-0.051,-0.03,-0.002,100.0,101.0,102.0,13.4,1505.2,323.2,-0.7,1.8,2471.199,13.29,0.059,239.5
2022-12-28T07:46:03,42.805,6.029,-0.005,-0.031,0.018,102.0,101.0,102.0,13.3,1505.2,334.9,-0.8,1.8,2471.193,13.29,0.031,189.2
2022-12-28T07:49:03,42.805,6.029,-0.032,-0.03,0.013,100.0,102.0,102.0,13.4,1505.2,317.4,-0.7,1.8,2471.221,13.29,0.043,226.9
2022-12-28T07:52:03,42.805,6.029,-0.028,-0.036,-0.013,102.0,101.0,101.0,13.4,1505.2,326.0,-0.7,1.8,2471.209,13.29,0.045,217.9
2022-12-28T07:55:03,42.805,6.029,-0.033,-0.02,-0.021,101.0,100.0,103.0,13.4,1505.2,329.3,-0.8,1.8,2471.209,13.29,0.038,238.8
2022-12-28T07:58:03,42.805,6.029,-0.016,-0.026,-0.001,101.0,102.0,103.0,13.4,1505.2,319.2,-0.7,1.8,2471.254,13.29,0.03,211.6
2022-12-28T08:04:03,42.805,6.029,-0.01,-0.024,0.008,100.0,102.0,103.0,13.4,1505.2,323.6,-0.8,1.8,2471.287,13.29,0.026,202.6
2022-12-28T08:07:03,42.805,6.029,-0.019,-0.036,0.022,102.0,102.0,102.0,13.4,1505.2,327.6,-0.8,1.8,2471.273,13.29,0.04,207.8
2022-12-28T08:10:03,42.805,6.029,-0.023,-0.012,0.045,101.0,101.0,102.0,13.4,1505.2,326.9,-0.7,1.8,2471.264,13.29,0.025,242.4
2022-12-28T08:13:03,42.805,6.029,-0.017,-0.015,0.02,100.0,101.0,102.0,13.4,1505.2,322.1,-0.7,1.8,2471.287,13.29,0.022,228.6
2022-12-28T08:16:03,42.805,6.029,-0.028,-0.028,-0.002,101.0,100.0,102.0,13.4,1505.2,331.4,-0.8,1.8,2471.28,13.29,0.039,225.0
2022-12-28T08:19:03,42.805,6.029,-0.04,-0.012,-0.016,101.0,102.0,102.0,13.3,1505.2,324.9,-0.7,1.8,2471.295,13.29,0.041,253.3
2022-12-28T08:22:03,42.805,6.029,-0.016,-0.01,0.024,102.0,101.0,102.0,13.4,1505.2,327.1,-0.8,1.9,2471.263,13.29,0.018,238.0
2022-12-28T08:25:03,42.805,6.029,-0.025,0.004,0.052,100.0,102.0,103.0,13.3,1505.2,328.7,-0.8,1.8,2471.267,13.29,0.025,279.1
2022-12-28T08:28:03,42.805,6.029,-0.019,-0.005,0.019,101.0,101.0,102.0,13.3,1505.2,327.7,-0.7,1.8,2471.259,13.29,0.019,255.3
2022-12-28T08:31:03,42.805,6.029,-0.011,-0.025,0.037,103.0,99.0,101.0,13.4,1505.2,323.1,-0.7,1.8,2471.238,13.29,0.027,203.7
2022-12-28T08:34:03,42.805,6.029,-0.023,-0.013,0.019,102.0,101.0,103.0,13.4,1505.2,329.1,-0.7,1.8,2471.285,13.29,0.026,240.5
2022-12-28T08:37:03,42.805,6.029,-0.012,-0.03,0.021,101.0,102.0,103.0,13.3,1505.2,324.2,-0.8,1.8,2471.29,13.29,0.032,201.8
2022-12-28T08:40:03,42.805,6.029,-0.011,-0.013,-0.01,101.0,101.0,102.0,13.4,1505.2,331.9,-0.8,1.8,2471.274,13.29,0.017,220.2
2022-12-28T08:43:03,42.805,6.029,-0.013,-0.03,-0.005,101.0,102.0,102.0,13.3,1505.2,322.3,-0.8,1.8,2471.271,13.29,0.032,203.4
2022-12-28T08:46:03,42.805,6.029,-0.029,-0.028,-0.014,101.0,102.0,102.0,13.4,1505.2,323.7,-0.8,1.8,2471.254,13.29,0.04,226.0
2022-12-28T08:49:03,42.805,6.029,-0.03,-0.002,0.015,101.0,101.0,102.0,13.4,1505.2,334.4,-0.7,1.9,2471.298,13.29,0.03,266.2
2022-12-28T08:52:03,42.805,6.029,-0.023,-0.025,-0.013,101.0,101.0,103.0,13.4,1505.2,327.6,-0.8,1.8,2471.307,13.29,0.033,222.6
2022-12-28T08:55:03,42.805,6.029,-0.034,-0.002,0.037,101.0,101.0,102.0,13.4,1505.2,318.4,-0.8,1.8,2471.314,13.29,0.034,266.6
2022-12-28T08:58:03,42.805,6.029,-0.01,-0.018,0.023,102.0,101.0,102.0,13.3,1505.2,328.8,-0.8,1.8,2471.297,13.29,0.02,209.1
2022-12-28T09:04:03,42.805,6.029,-0.024,0.0,0.005,101.0,101.0,102.0,13.4,1505.2,334.9,-0.8,1.8,2471.337,13.29,0.024,270.0
2022-12-28T09:07:03,42.805,6.029,-0.025,-0.009,0.015,102.0,101.0,101.0,13.4,1505.2,323.2,-0.7,1.8,2471.323,13.29,0.026,250.2
2022-12-28T09:10:03,42.805,6.029,-0.041,-0.035,-0.03,101.0,101.0,102.0,13.3,1505.2,324.3,-0.8,1.8,2471.321,13.29,0.053,229.5
2022-12-28T09:13:03,42.805,6.029,-0.002,-0.017,0.035,102.0,101.0,103.0,13.4,1505.2,331.0,-0.8,1.8,2471.354,13.29,0.017,186.7
2022-12-28T09:16:03,42.805,6.029,-0.033,-0.024,-0.014,101.0,101.0,103.0,13.4,1505.2,323.6,-0.8,1.8,2471.303,13.29,0.04,234.0
2022-12-28T09:19:03,42.805,6.029,-0.026,-0.025,-0.013,102.0,101.0,102.0,13.4,1505.2,319.9,-0.7,1.8,2471.323,13.29,0.036,226.1
2022-12-28T09:22:03,42.805,6.029,-0.023,-0.013,0.011,102.0,101.0,102.0,13.3,1505.2,326.3,-0.8,1.8,2471.332,13.29,0.026,240.5
2022-12-28T09:25:03,42.805,6.029,-0.027,-0.011,-0.015,102.0,102.0,102.0,13.4,1505.2,333.4,-0.8,1.8,2471.344,13.29,0.029,247.8
2022-12-28T09:28:03,42.805,6.029,-0.032,-0.025,0.008,100.0,101.0,103.0,13.4,1505.2,324.9,-0.7,1.8,2471.308,13.29,0.04,232.0
2022-12-28T09:31:03,42.805,6.029,-0.014,-0.026,-0.021,102.0,101.0,102.0,13.3,1505.2,324.7,-0.8,1.9,2471.312,13.29,0.029,208.3
2022-12-28T09:34:03,42.805,6.029,-0.038,-0.007,0.007,101.0,102.0,102.0,13.4,1505.2,330.3,-0.8,1.8,2471.343,13.29,0.038,259.6
2022-12-28T09:37:03,42.805,6.029,-0.044,-0.015,0.009,102.0,101.0,102.0,13.4,1505.2,321.5,-0.8,1.8,2471.329,13.29,0.046,251.2
2022-12-28T09:40:03,42.805,6.029,-0.034,-0.014,0.02,101.0,101.0,102.0,13.4,1505.2,337.1,-0.7,1.9,2471.345,13.29,0.036,247.6
2022-12-28T09:43:03,42.805,6.029,-0.024,-0.026,0.025,101.0,104.0,102.0,13.4,1505.2,322.3,-0.8,1.8,2471.373,13.29,0.035,222.7
2022-12-28T09:46:03,42.805,6.029,-0.034,-0.002,0.006,101.0,102.0,103.0,13.4,1505.2,337.7,-0.8,1.8,2471.331,13.29,0.034,266.6
2022-12-28T09:49:03,42.805,6.029,-0.022,-0.011,0.026,101.0,102.0,102.0,13.4,1505.2,322.8,-0.8,1.8,2471.328,13.29,0.024,243.4
2022-12-28T09:52:03,42.805,6.029,-0.021,-0.021,0.013,101.0,101.0,102.0,13.4,1505.2,327.0,-0.7,1.8,2471.329,13.29,0.029,225.0